Location: Pine Mountain Observatory
(43.7910°N, 120.9377°W)
Time: 06:38:41
(UTC-07:00)

SR - Visible Passes

Search period start: 23 October 2019 00:00
Search period end: 02 November 2019 00:00
Orbit: 574 x 881 km, 66.7° (Epoch: 22 October)

Date Brightness Start Highest point End Pass type
(mag) Time Alt. Az. Time Alt. Az. Time Alt. Az.
23 Oct ? 05:54:53 10° NNW 06:00:00 29° NE 06:05:06 10° ESE visible
24 Oct ? 05:05:40 10° N 05:09:48 19° NE 05:13:57 10° E visible
24 Oct ? 06:46:56 10° NNW 06:52:52 79° ENE 06:58:46 10° SE visible
25 Oct ? 04:16:47 10° N 04:19:25 13° NNE 04:22:04 10° NE visible
25 Oct ? 05:57:23 10° NNW 06:03:04 46° NE 06:08:42 10° SE visible
26 Oct ? 05:08:00 10° NNW 05:13:03 28° NE 05:18:06 10° ESE visible
26 Oct ? 06:49:45 10° NW 06:55:37 63° WSW 07:01:22 10° SSE visible
27 Oct ? 04:19:30 12° N 04:22:51 19° NE 04:26:53 10° E visible
27 Oct ? 06:00:01 10° NNW 06:05:58 75° ENE 06:11:50 10° SE visible
28 Oct ? 03:31:50 12° NNE 03:32:27 13° NNE 03:34:56 10° NE visible
28 Oct ? 05:11:18 14° NNW 05:16:08 44° NE 05:21:44 10° ESE visible
28 Oct ? 06:52:51 10° NW 06:58:12 36° WSW 07:03:26 10° S visible
29 Oct ? 04:23:47 21° N 04:26:07 27° NE 04:31:05 10° E visible
29 Oct ? 06:03:16 12° NW 06:08:44 66° WSW 06:14:29 10° SSE visible
29 Oct ? 20:33:43 10° SSW 20:35:06 19° SSW 20:35:06 19° SSW visible
30 Oct ? 03:36:28 18° NE 03:36:28 18° NE 03:39:50 10° ENE visible
30 Oct ? 05:15:57 29° NNW 05:19:05 71° ENE 05:24:54 10° SE visible
30 Oct ? 06:56:24 10° WNW 07:00:37 20° WSW 07:04:45 10° SSW visible
30 Oct ? 19:44:45 10° S 19:48:11 31° SE 19:48:11 31° SE visible
30 Oct ? 21:26:31 10° WSW 21:27:41 16° WSW 21:27:41 16° WSW visible
31 Oct ? 04:28:48 41° NE 04:29:13 42° NE 04:34:45 10° ESE visible
31 Oct ? 06:08:18 23° WNW 06:11:19 38° WSW 06:16:36 10° S visible
31 Oct ? 18:56:43 10° SE 19:00:03 18° ESE 19:01:09 17° E visible
31 Oct ? 20:36:22 10° SW 20:40:38 58° WSW 20:40:38 58° WSW visible
01 Nov ? 03:41:50 19° E 03:41:50 19° E 03:44:03 10° E visible
01 Nov ? 05:21:21 66° W 05:21:50 70° WSW 05:27:36 10° SSE visible
01 Nov ? 07:01:45 10° W 07:02:52 11° W 07:04:01 10° WSW visible
01 Nov ? 19:46:48 10° SSW 19:51:48 65° ESE 19:53:25 43° NE visible
01 Nov ? 21:30:09 10° W 21:32:54 22° WNW 21:32:54 22° WNW visible
